User: anonymous   Login
Location: Unspecified
(0.0000°N, 0.0000°E)
Time: 19:59:08
(UTC+00:00)
Language:

COSMOS 2489 - Orbit

View from above orbital plane
View from above orbital plane
View from above satellite
View from above satellite

Ground track
Ground track

The orbit data is extracted from the following two-line orbital elements,

1 39484U 13076B   18171.74258931 +.00000025 +00000-0 +11103-3 0  9998
2 39484 082.4857 187.9535 0021619 341.6313 018.3984 12.42887226203608
Epoch (UTC): 20 June 2018 17:49:19
Eccentricity: 0.0021619
inclination: 82.4857°
perigee height: 1477 km
apogee height: 1511 km
right ascension of ascending node: 187.9535°
argument of perigee: 341.6313°
revolutions per day: 12.42887226
mean anomaly at epoch: 18.3984°
orbit number at epoch: 20360

The dashed part of the orbit path shows where the satellite is in the earth's shadow,  

DLR